SES-3

Last updated on Sun Jun 21 2026 00:03:05 GMT+0000 (Coordinated Universal Time)

1 37748U 11035A 26171.35461541 -.00000107 00000+0 00000+0 0 9992 2 37748 1.3361 83.0559 0002382 358.6065 211.5647 1.00271591 54622
UTC large
Height (km)
Speed (km/s)
/
Latitude / Longitude
Inclination (degrees)
Orbital Period (minutes)
Azimuth
Elevation
Range (km)
Doppler Factor

Next 0 passes for location: London (51.5072 / 0.1276)

No passes found over London.
SES-3